EW5773 Weather Reports


Display with metric or nautical units.
time (UTC)temp
F
wind
direction
speed
MPH
gust
MPH
rain 1hr
in
rain 24hr
in
rain mn
in
humidity
%
barometer
mb
20260504000016 54 109 1.0 6.0 0.00 0.26 0.00 91 1011.2
20260503234530 53 92 2.0 6.0 0.00 0.26 0.00 91 1011.4
20260503233042 54 57 0.0 0.0 0.00 0.26 0.00 91 1011.5
20260503231512 54 55 0.0 0.0 0.00 0.26 0.00 91 1011.6
20260503230007 54 55 0.0 0.0 0.00 0.26 0.00 91 1011.6
20260503224505 54 55 0.0 0.0 0.00 0.26 0.00 91 1011.6
20260503223005 54 55 0.0 0.0 0.00 0.26 0.00 90 1011.6
20260503221504 54 54 0.0 0.0 0.00 0.26 0.00 90 1011.4
20260503220017 54 54 0.0 0.0 0.00 0.26 0.00 89 1011.4
20260503214517 54 54 0.0 3.0 0.00 0.26 0.26 89 1011.6
20260503213014 55 55 0.0 0.0 0.00 0.26 0.26 89 1011.4
20260503211512 55 56 0.0 0.0 0.00 0.26 0.26 89 1011.7
20260503210011 55 56 0.0 2.0 0.00 0.26 0.26 89 1011.6
20260503204545 56 56 1.0 4.0 0.00 0.26 0.26 88 1011.4
20260503203004 56 55 0.0 2.0 0.00 0.26 0.26 88 1011.1
20260503201505 56 55 0.0 3.0 0.00 0.26 0.26 88 1011.0
20260503200002 57 55 0.0 2.0 0.00 0.26 0.26 88 1010.9
20260503194504 57 55 0.0 4.0 0.00 0.26 0.26 87 1010.7
20260503193022 58 55 2.0 3.0 0.00 0.26 0.26 86 1010.5
20260503191517 58 53 0.0 1.0 0.00 0.26 0.26 85 1010.4
20260503190016 59 53 1.0 3.0 0.00 0.26 0.26 85 1010.4
20260503184524 59 53 1.0 4.0 0.00 0.26 0.26 83 1010.1
20260503183009 59 15 0.0 3.0 0.00 0.26 0.26 83 1010.0
20260503181506 60 12 2.0 4.0 0.00 0.26 0.26 83 1009.9
20260503180018 59 9 0.0 3.0 0.08 0.26 0.26 84 1010.0
20260503174507 59 9 0.0 3.0 0.08 0.26 0.26 85 1009.8
20260503173019 58 5 2.0 8.0 0.08 0.26 0.26 85 1009.8
20260503171604 58 355 4.0 10.0 0.08 0.26 0.26 84 1010.0
20260503130104 63 230 4.0 12.0 0.00 0.18 0.18 78 1010.8
20260503081514 57 360 6.0 12.0 0.01 0.08 0.08 94 1011.2
20260503071517 56 360 3.0 9.0 0.00 0.07 0.07 94 1011.1
20260503070109 56 167 4.0 10.0 0.01 0.07 0.07 94 1011.0
20260503054504 55 149 4.0 9.0 0.01 0.06 0.06 94 1010.9
20260503053003 55 136 5.0 11.0 0.01 0.06 0.06 94 1011.0
20260503051503 55 161 4.0 10.0 0.01 0.06 0.06 94 1011.0
20260503050018 55 153 3.0 9.0 0.01 0.06 0.06 93 1011.0
20260503044514 55 139 5.0 10.0 0.00 0.05 0.05 94 1011.0
20260503043013 55 161 4.0 14.0 0.00 0.05 0.05 94 1011.0
20260503041511 55 107 4.0 10.0 0.01 0.05 0.05 93 1011.2
20260503040007 55 134 5.0 9.0 0.01 0.05 0.05 93 1011.0
20260503034518 55 134 5.0 9.0 0.01 0.05 0.05 93 1011.2
20260503033004 55 146 3.0 7.0 0.02 0.05 0.05 92 1011.2
20260503031503 55 162 3.0 6.0 0.02 0.04 0.04 92 1011.2
20260503024519 55 129 3.0 7.0 0.03 0.04 0.04 92 1011.3
20260503023016 56 148 3.0 8.0 0.02 0.03 0.03 91 1011.4
20260503021516 56 155 3.0 6.0 0.02 0.02 0.02 91 1011.5
20260503020016 56 175 3.0 5.0 0.02 0.02 0.02 90 1011.5
20260503014516 56 360 2.0 5.0 0.01 0.01 0.01 89 1011.6
20260503013016 57 178 2.0 4.0 0.01 0.01 0.01 89 1011.8
20260503011509 57 360 3.0 7.0 0.01 0.01 0.01 89 1011.8
20260503010009 57 202 2.0 7.0 0.00 0.00 0.00 90 1011.9
20260503004509 57 234 2.0 4.0 0.00 0.00 0.00 90 1011.9
20260503003006 57 236 1.0 4.0 0.00 0.00 0.00 90 1011.7
20260503001506 57 236 2.0 7.0 0.00 0.00 0.00 90 1011.8